Hourly Data Report for October 20, 2013

All times are specified in Local Standard Time (LST). Add 1 hour to adjust for Daylight Saving Time where and when it is observed.

EMERSON AUTO
MANITOBA

49°00'00.000" N
97°14'15.000" W
242.00 m
5020881
71560
WEX

Download Data

Hourly Data (October 2013)
Hourly Data Report for October 20, 2013
Temp Definition
°C
Dew Point Temp Definition
°C
Rel Hum Definition
%
Wind Dir Definition
10's deg

Wind Spd Definition
km/h
Visibility Definition
km
Stn Press Definition
kPa
Hmdx Definition


Wind Chill Definition


Weather Definition


TIME
00:00 2.1 -0.2 85 15 6   97.63     LegendNANA
01:00 1.7 0.2 90 13 6   97.61     LegendNANA
02:00 1.6 0.4 92 16 4   97.61     LegendNANA
03:00 1.6 0.6 93   0   97.60     LegendNANA
04:00 1.3 0.5 94 35 6   97.63     LegendNANA
05:00 1.0 0.4 96 36 7   97.66     LegendNANA
06:00 0.7 0.2 96 1 11   97.71     LegendNANA
07:00 0.7 0.3 97 36 9   97.76     LegendNANA
08:00 1.0 0.6 97 34 13   97.84     LegendNANA
09:00 1.5 0.8 95 35 22   97.91     LegendNANA
10:00 1.8 -1.3 80 35 30   97.99     LegendNANA
11:00 2.9 -3.1 65 36 32   98.05     LegendNANA
12:00 4.1 -2.1 64 35 33   98.09     LegendNANA
13:00 2.9 -4.0 60 33 35   98.13     LegendNANA
14:00 2.5 -3.4 65 33 37   98.16     LegendNANA
15:00 1.6 -3.6 68 33 37   98.23     LegendNANA
16:00 1.2 -3.6 70 33 30   98.29     LegendNANA
17:00 0.9 -4.9 65 32 28   98.33     LegendNANA
18:00 0.3 -3.8 74 31 22   98.39     LegendNANA
19:00 0.1 -3.6 76 32 26   98.43     LegendNANA
20:00 -0.6 -3.5 81 31 24   98.44   -7 LegendNANA
21:00 -1.0 -3.0 86 31 19   98.46   -6 LegendNANA
22:00 -1.4 -3.3 87 31 24   98.46   -8 LegendNANA
23:00 -1.9 -4.5 82 31 26   98.45   -8 LegendNANA

Notes on Data Quality.

Legend

  • E = Estimated
  • M = Missing
  • NA = Not Available
  • ‡ = Partner data that is not subject to review by the National Climate Archives
Date modified: